| time (UTC) | temp F | wind direction | speed MPH | gust MPH | rain 1hr in | rain 24hr in | rain mn in | humidity % | barometer mb |
| 20260902122702 | 77 | 264 | 0.0 | 1.0 | 0.00 | 0.00 | 0.00 | 75 | 101.4 |
| 20260902122202 | 77 | 179 | 1.0 | 2.0 | 0.00 | 0.00 | 0.00 | 75 | 101.4 |
| 20260902121702 | 77 | 277 | 0.0 | 1.0 | 0.00 | 0.00 | 0.00 | 74 | 101.3 |
| 20260902121202 | 77 | 299 | 1.0 | 3.0 | 0.00 | 0.00 | 0.00 | 74 | 101.3 |
| 20260902120702 | 77 | 258 | 1.0 | 2.0 | 0.00 | 0.00 | 0.00 | 74 | 101.3 |
| 20260902114702 | 78 | 232 | 2.0 | 2.0 | 0.00 | 0.00 | 0.00 | 74 | 101.3 |
| 20260902114203 | 78 | 111 | 0.0 | 2.0 | 0.00 | 0.00 | 0.00 | 73 | 101.3 |
| 20260902113201 | 78 | 275 | 1.0 | 2.0 | 0.00 | 0.00 | 0.00 | 73 | 101.3 |
| 20260902112702 | 78 | 268 | 2.0 | 2.0 | 0.00 | 0.00 | 0.00 | 73 | 101.3 |
| 20260902112203 | 78 | 283 | 3.0 | 4.0 | 0.00 | 0.00 | 0.00 | 73 | 101.3 |
| 20260902111702 | 78 | 256 | 1.0 | 3.0 | 0.00 | 0.00 | 0.00 | 73 | 101.3 |
| 20260902111202 | 78 | 240 | 2.0 | 3.0 | 0.00 | 0.00 | 0.00 | 74 | 101.3 |
| 20260902110701 | 78 | 243 | 3.0 | 4.0 | 0.00 | 0.00 | 0.00 | 74 | 101.3 |
| 20260902110201 | 78 | 183 | 1.0 | 3.0 | 0.00 | 0.00 | 0.00 | 73 | 101.3 |
| 20260902105702 | 78 | 206 | 3.0 | 3.0 | 0.00 | 0.00 | 0.00 | 73 | 101.3 |
| 20260902105202 | 78 | 295 | 2.0 | 3.0 | 0.00 | 0.00 | 0.00 | 73 | 101.3 |
| 20260902104702 | 78 | 308 | 3.0 | 4.0 | 0.00 | 0.00 | 0.00 | 73 | 101.3 |
| 20260902103702 | 79 | 272 | 2.0 | 3.0 | 0.00 | 0.00 | 0.00 | 73 | 101.3 |
| 20260902103202 | 79 | 221 | 3.0 | 6.0 | 0.00 | 0.00 | 0.00 | 74 | 101.3 |
| 20260902102702 | 79 | 257 | 3.0 | 3.0 | 0.00 | 0.00 | 0.00 | 73 | 101.3 |
| 20260902102202 | 79 | 292 | 2.0 | 2.0 | 0.00 | 0.00 | 0.00 | 73 | 101.3 |
| 20260902101202 | 79 | 235 | 2.0 | 3.0 | 0.00 | 0.00 | 0.00 | 72 | 101.3 |
| 20260902100202 | 79 | 169 | 1.0 | 3.0 | 0.00 | 0.00 | 0.00 | 72 | 101.3 |
| 20260902095702 | 79 | 195 | 2.0 | 3.0 | 0.00 | 0.00 | 0.00 | 73 | 101.3 |
| 20260902095202 | 79 | 240 | 2.0 | 2.0 | 0.00 | 0.00 | 0.00 | 73 | 101.3 |
| 20260902094702 | 79 | 196 | 2.0 | 5.0 | 0.00 | 0.00 | 0.00 | 73 | 101.3 |
| 20260902094202 | 79 | 84 | 1.0 | 2.0 | 0.00 | 0.00 | 0.00 | 74 | 101.3 |
| 20260902093702 | 79 | 268 | 2.0 | 3.0 | 0.00 | 0.00 | 0.00 | 74 | 101.3 |
| 20260902093202 | 79 | 238 | 2.0 | 2.0 | 0.00 | 0.00 | 0.00 | 75 | 101.3 |
| 20260902092702 | 79 | 275 | 2.0 | 3.0 | 0.00 | 0.00 | 0.00 | 76 | 101.3 |
| 20260902092202 | 79 | 222 | 3.0 | 4.0 | 0.00 | 0.00 | 0.00 | 76 | 101.3 |
| 20260902091703 | 79 | 210 | 2.0 | 2.0 | 0.00 | 0.00 | 0.00 | 76 | 101.3 |
| 20260902091202 | 78 | 228 | 2.0 | 3.0 | 0.00 | 0.00 | 0.00 | 77 | 101.3 |
| 20260902090203 | 78 | 250 | 1.0 | 3.0 | 0.00 | 0.00 | 0.00 | 77 | 101.3 |
| 20260902085702 | 77 | 215 | 2.0 | 4.0 | 0.00 | 0.00 | 0.00 | 77 | 101.3 |
| 20260902084701 | 77 | 319 | 4.0 | 4.0 | 0.00 | 0.00 | 0.00 | 78 | 101.3 |
| 20260902084202 | 77 | 193 | 1.0 | 3.0 | 0.00 | 0.00 | 0.00 | 78 | 101.3 |
| 20260902083202 | 78 | 83 | 0.0 | 4.0 | 0.00 | 0.00 | 0.00 | 76 | 101.4 |
| 20260902082702 | 78 | 190 | 1.0 | 3.0 | 0.00 | 0.00 | 0.00 | 76 | 101.4 |
| 20260902082202 | 78 | 213 | 1.0 | 1.0 | 0.00 | 0.00 | 0.00 | 75 | 101.4 |
| 20260902081702 | 78 | 182 | 0.0 | 3.0 | 0.00 | 0.00 | 0.00 | 74 | 101.4 |
| 20260902081203 | 78 | 123 | 0.0 | 3.0 | 0.00 | 0.00 | 0.00 | 74 | 101.4 |
| 20260902080702 | 79 | 254 | 2.0 | 3.0 | 0.00 | 0.00 | 0.00 | 74 | 101.4 |
| 20260902080202 | 79 | 212 | 0.0 | 4.0 | 0.00 | 0.00 | 0.00 | 74 | 101.3 |
| 20260902075702 | 79 | 333 | 0.0 | 2.0 | 0.00 | 0.00 | 0.00 | 74 | 101.3 |
| 20260902075202 | 79 | 117 | 0.0 | 0.0 | 0.00 | 0.00 | 0.00 | 74 | 101.3 |
| 20260902074702 | 79 | 180 | 0.0 | 0.0 | 0.00 | 0.00 | 0.00 | 74 | 101.3 |
| 20260902074202 | 79 | 135 | 0.0 | 0.0 | 0.00 | 0.00 | 0.00 | 74 | 101.3 |
| 20260902073702 | 79 | 217 | 0.0 | 0.0 | 0.00 | 0.00 | 0.00 | 73 | 101.3 |
| 20260902073202 | 79 | 217 | 0.0 | 1.0 | 0.00 | 0.00 | 0.00 | 72 | 101.4 |
| 20260902072202 | 80 | 246 | 0.0 | 0.0 | 0.00 | 0.00 | 0.00 | 72 | 101.4 |
| 20260902071702 | 80 | 129 | 0.0 | 0.0 | 0.00 | 0.00 | 0.00 | 72 | 101.4 |
| 20260902071201 | 80 | 230 | 0.0 | 1.0 | 0.00 | 0.00 | 0.00 | 71 | 101.4 |
| 20260902070702 | 80 | 147 | 0.0 | 0.0 | 0.00 | 0.00 | 0.00 | 71 | 101.4 |
| 20260902070202 | 80 | 315 | 0.0 | 0.0 | 0.00 | 0.00 | 0.00 | 70 | 101.3 |
| 20260902065702 | 81 | 269 | 0.0 | 0.0 | 0.00 | 0.00 | 0.00 | 70 | 101.3 |
| 20260902065202 | 81 | 224 | 0.0 | 0.0 | 0.00 | 0.00 | 0.00 | 70 | 101.3 |
| 20260902064702 | 81 | 195 | 0.0 | 0.0 | 0.00 | 0.00 | 0.00 | 69 | 101.3 |
| 20260902063701 | 82 | 246 | 0.0 | 0.0 | 0.00 | 0.00 | 0.00 | 70 | 101.3 |
| 20260902063202 | 82 | 246 | 0.0 | 0.0 | 0.00 | 0.00 | 0.00 | 69 | 101.4 |
| 20260902062702 | 82 | 224 | 0.0 | 1.0 | 0.00 | 0.00 | 0.00 | 69 | 101.4 |
| 20260902062202 | 82 | 224 | 0.0 | 0.0 | 0.00 | 0.00 | 0.00 | 68 | 101.4 |
| 20260902061702 | 82 | 224 | 0.0 | 1.0 | 0.00 | 0.00 | 0.00 | 68 | 101.4 |
| 20260902061201 | 83 | 214 | 2.0 | 2.0 | 0.00 | 0.00 | 0.00 | 67 | 101.4 |
| 20260902060703 | 83 | 174 | 0.0 | 2.0 | 0.00 | 0.00 | 0.00 | 67 | 101.4 |
| 20260902060202 | 83 | 212 | 0.0 | 2.0 | 0.00 | 0.00 | 0.00 | 67 | 101.3 |
| 20260902055702 | 83 | 194 | 0.0 | 2.0 | 0.00 | 0.00 | 0.00 | 66 | 101.3 |
| 20260902055202 | 83 | 191 | 0.0 | 4.0 | 0.00 | 0.00 | 0.00 | 66 | 101.3 |
| 20260902054702 | 84 | 209 | 0.0 | 2.0 | 0.00 | 0.00 | 0.00 | 65 | 101.3 |
| 20260902054202 | 84 | 190 | 2.0 | 3.0 | 0.00 | 0.00 | 0.00 | 65 | 101.3 |
| 20260902053702 | 84 | 185 | 0.0 | 3.0 | 0.00 | 0.00 | 0.00 | 65 | 101.3 |
| 20260902053202 | 84 | 203 | 2.0 | 4.0 | 0.00 | 0.00 | 0.00 | 64 | 101.3 |
| 20260902052702 | 84 | 230 | 2.0 | 4.0 | 0.00 | 0.00 | 0.00 | 64 | 101.3 |
| 20260902052202 | 84 | 155 | 0.0 | 3.0 | 0.00 | 0.00 | 0.00 | 64 | 101.3 |
| 20260902051702 | 84 | 210 | 1.0 | 2.0 | 0.00 | 0.00 | 0.00 | 63 | 101.4 |
| 20260902051202 | 85 | 196 | 4.0 | 5.0 | 0.00 | 0.00 | 0.00 | 63 | 101.4 |
| 20260902050702 | 85 | 202 | 2.0 | 4.0 | 0.00 | 0.00 | 0.00 | 62 | 101.4 |
| 20260902045702 | 85 | 195 | 2.0 | 7.0 | 0.00 | 0.00 | 0.00 | 61 | 101.3 |
| 20260902045202 | 85 | 198 | 6.0 | 6.0 | 0.00 | 0.00 | 0.00 | 60 | 101.3 |
| 20260902044701 | 86 | 137 | 0.0 | 7.0 | 0.00 | 0.00 | 0.00 | 60 | 101.3 |
| 20260902044201 | 85 | 171 | 3.0 | 6.0 | 0.00 | 0.00 | 0.00 | 60 | 101.3 |
| 20260902043703 | 85 | 169 | 0.0 | 4.0 | 0.00 | 0.00 | 0.00 | 59 | 101.3 |
| 20260902043202 | 86 | 195 | 1.0 | 3.0 | 0.00 | 0.00 | 0.00 | 59 | 101.3 |
| 20260902042702 | 86 | 213 | 1.0 | 2.0 | 0.00 | 0.00 | 0.00 | 58 | 101.3 |
| 20260902042202 | 86 | 245 | 0.0 | 6.0 | 0.00 | 0.00 | 0.00 | 58 | 101.3 |
| 20260902041703 | 86 | 240 | 2.0 | 4.0 | 0.00 | 0.00 | 0.00 | 58 | 101.3 |
| 20260902041202 | 86 | 155 | 0.0 | 2.0 | 0.00 | 0.00 | 0.00 | 58 | 101.3 |
| 20260902040702 | 86 | 207 | 0.0 | 4.0 | 0.00 | 0.00 | 0.00 | 58 | 101.3 |
| 20260902040202 | 86 | 181 | 0.0 | 5.0 | 0.00 | 0.00 | 0.00 | 57 | 101.3 |
| 20260902035702 | 86 | 196 | 1.0 | 3.0 | 0.00 | 0.00 | 0.00 | 57 | 101.3 |
| 20260902035203 | 86 | 233 | 1.0 | 3.0 | 0.00 | 0.00 | 0.00 | 57 | 101.3 |
| 20260902034202 | 87 | 237 | 1.0 | 3.0 | 0.00 | 0.00 | 0.00 | 56 | 101.3 |
| 20260902033702 | 87 | 156 | 1.0 | 5.0 | 0.00 | 0.00 | 0.00 | 56 | 101.3 |
| 20260902033203 | 87 | 139 | 0.0 | 4.0 | 0.00 | 0.00 | 0.00 | 57 | 101.3 |
| 20260902032202 | 87 | 209 | 0.0 | 3.0 | 0.00 | 0.00 | 0.00 | 56 | 101.3 |
| 20260902031702 | 87 | 187 | 2.0 | 4.0 | 0.00 | 0.00 | 0.00 | 56 | 101.3 |
| 20260902030202 | 88 | 182 | 0.0 | 3.0 | 0.00 | 0.00 | 0.00 | 55 | 101.2 |
| 20260902025702 | 88 | 169 | 0.0 | 4.0 | 0.00 | 0.00 | 0.00 | 54 | 101.2 |
| 20260902024702 | 88 | 197 | 1.0 | 4.0 | 0.00 | 0.00 | 0.00 | 54 | 101.2 |
| 20260902024202 | 88 | 200 | 2.0 | 5.0 | 0.00 | 0.00 | 0.00 | 53 | 101.2 |
| 20260902023702 | 88 | 192 | 2.0 | 7.0 | 0.00 | 0.00 | 0.00 | 53 | 101.2 |
| 20260902023201 | 88 | 195 | 3.0 | 5.0 | 0.00 | 0.00 | 0.00 | 52 | 101.2 |
| 20260902022702 | 88 | 224 | 0.0 | 3.0 | 0.00 | 0.00 | 0.00 | 52 | 101.2 |
| 20260902022203 | 88 | 324 | 0.0 | 4.0 | 0.00 | 0.00 | 0.00 | 51 | 101.2 |
| 20260902021702 | 88 | 72 | 0.0 | 3.0 | 0.00 | 0.00 | 0.00 | 51 | 101.2 |
| 20260902020702 | 89 | 242 | 0.0 | 2.0 | 0.00 | 0.00 | 0.00 | 50 | 101.2 |
| 20260902020202 | 89 | 135 | 0.0 | 1.0 | 0.00 | 0.00 | 0.00 | 49 | 101.1 |
| 20260902015202 | 90 | 230 | 0.0 | 1.0 | 0.00 | 0.00 | 0.00 | 48 | 101.1 |
| 20260902014702 | 90 | 154 | 0.0 | 1.0 | 0.00 | 0.00 | 0.00 | 48 | 101.1 |
| 20260902014202 | 90 | 217 | 0.0 | 1.0 | 0.00 | 0.00 | 0.00 | 47 | 101.1 |
| 20260902013702 | 90 | 222 | 2.0 | 3.0 | 0.00 | 0.00 | 0.00 | 47 | 101.1 |
| 20260902012202 | 91 | 139 | 0.0 | 1.0 | 0.00 | 0.00 | 0.00 | 44 | 101.1 |
| 20260902011702 | 91 | 202 | 0.0 | 1.0 | 0.00 | 0.00 | 0.00 | 44 | 101.1 |
| 20260902010202 | 92 | 222 | 0.0 | 2.0 | 0.00 | 0.00 | 0.00 | 43 | 101.1 |
| 20260902005701 | 92 | 143 | 1.0 | 1.0 | 0.00 | 0.00 | 0.00 | 43 | 101.1 |
| 20260902004702 | 92 | 143 | 1.0 | 2.0 | 0.00 | 0.00 | 0.00 | 43 | 101.1 |
| 20260902003702 | 93 | 116 | 0.0 | 2.0 | 0.00 | 0.00 | 0.00 | 42 | 101.1 |
| 20260902003202 | 93 | 155 | 1.0 | 2.0 | 0.00 | 0.00 | 0.00 | 42 | 101.1 |
| 20260902002702 | 93 | 153 | 1.0 | 2.0 | 0.00 | 0.00 | 0.00 | 42 | 101.1 |
| 20260902002202 | 94 | 130 | 2.0 | 2.0 | 0.00 | 0.00 | 0.00 | 41 | 101.1 |
| 20260902001702 | 94 | 142 | 0.0 | 2.0 | 0.00 | 0.00 | 0.00 | 41 | 101.1 |
| 20260902001202 | 95 | 113 | 3.0 | 3.0 | 0.00 | 0.00 | 0.00 | 39 | 101.1 |
| 20260902000702 | 95 | 150 | 0.0 | 1.0 | 0.00 | 0.00 | 0.00 | 38 | 101.1 |
| 20260902000204 | 95 | 287 | 1.0 | 2.0 | 0.00 | 0.00 | 0.00 | 38 | 101.0 |
| 20260901235702 | 95 | 205 | 0.0 | 1.0 | 0.00 | 0.00 | 0.00 | 37 | 101.0 |
| 20260901235202 | 95 | 242 | 1.0 | 2.0 | 0.00 | 0.00 | 0.00 | 37 | 101.0 |
| 20260901234702 | 95 | 197 | 1.0 | 2.0 | 0.00 | 0.00 | 0.00 | 38 | 101.0 |
| 20260901234202 | 95 | 244 | 0.0 | 1.0 | 0.00 | 0.00 | 0.00 | 39 | 101.0 |
| 20260901233702 | 95 | 202 | 0.0 | 1.0 | 0.00 | 0.00 | 0.00 | 39 | 101.0 |
| 20260901233202 | 94 | 196 | 0.0 | 2.0 | 0.00 | 0.00 | 0.00 | 41 | 101.0 |
| 20260901232702 | 94 | 247 | 1.0 | 2.0 | 0.00 | 0.00 | 0.00 | 41 | 101.1 |
| 20260901232202 | 95 | 164 | 0.0 | 1.0 | 0.00 | 0.00 | 0.00 | 40 | 101.1 |
| 20260901231702 | 96 | 129 | 0.0 | 4.0 | 0.00 | 0.00 | 0.00 | 39 | 101.1 |
| 20260901231202 | 97 | 128 | 1.0 | 4.0 | 0.00 | 0.00 | 0.00 | 38 | 101.1 |
| 20260901230702 | 97 | 115 | 1.0 | 3.0 | 0.00 | 0.00 | 0.00 | 38 | 101.1 |
| 20260901230202 | 96 | 105 | 1.0 | 3.0 | 0.00 | 0.00 | 0.00 | 38 | 101.0 |
| 20260901225702 | 97 | 15 | 1.0 | 3.0 | 0.00 | 0.00 | 0.00 | 38 | 101.0 |
| 20260901225202 | 97 | 214 | 2.0 | 4.0 | 0.00 | 0.00 | 0.00 | 37 | 101.0 |
| 20260901224702 | 96 | 261 | 2.0 | 2.0 | 0.00 | 0.00 | 0.00 | 38 | 101.0 |
| 20260901224202 | 94 | 235 | 0.0 | 2.0 | 0.00 | 0.00 | 0.00 | 39 | 101.0 |
| 20260901223702 | 95 | 319 | 0.0 | 2.0 | 0.00 | 0.00 | 0.00 | 39 | 101.0 |
| 20260901223202 | 96 | 241 | 1.0 | 1.0 | 0.00 | 0.00 | 0.00 | 39 | 101.0 |
| 20260901222702 | 97 | 164 | 0.0 | 1.0 | 0.00 | 0.00 | 0.00 | 38 | 101.1 |
| 20260901222202 | 95 | 153 | 1.0 | 3.0 | 0.00 | 0.00 | 0.00 | 38 | 101.1 |
| 20260901221703 | 95 | 231 | 1.0 | 2.0 | 0.00 | 0.00 | 0.00 | 39 | 101.1 |
| 20260901220702 | 97 | 207 | 2.0 | 7.0 | 0.00 | 0.00 | 0.00 | 36 | 101.1 |
| 20260901220203 | 97 | 224 | 1.0 | 3.0 | 0.00 | 0.00 | 0.00 | 36 | 101.0 |
| 20260901215202 | 97 | 234 | 1.0 | 3.0 | 0.00 | 0.00 | 0.00 | 37 | 101.0 |
| 20260901214702 | 97 | 178 | 2.0 | 4.0 | 0.00 | 0.00 | 0.00 | 36 | 101.0 |
| 20260901214202 | 97 | 186 | 3.0 | 4.0 | 0.00 | 0.00 | 0.00 | 36 | 101.0 |
| 20260901213702 | 98 | 123 | 2.0 | 3.0 | 0.00 | 0.00 | 0.00 | 36 | 101.0 |
| 20260901212702 | 98 | 178 | 0.0 | 3.0 | 0.00 | 0.00 | 0.00 | 36 | 101.2 |
| 20260901212202 | 96 | 30 | 0.0 | 2.0 | 0.00 | 0.00 | 0.00 | 37 | 101.2 |
| 20260901211202 | 99 | 313 | 1.0 | 3.0 | 0.00 | 0.00 | 0.00 | 37 | 101.2 |
| 20260901210702 | 98 | 357 | 2.0 | 4.0 | 0.00 | 0.00 | 0.00 | 37 | 101.2 |
| 20260901210202 | 97 | 195 | 3.0 | 5.0 | 0.00 | 0.00 | 0.00 | 38 | 101.1 |
| 20260901205702 | 97 | 274 | 0.0 | 2.0 | 0.00 | 0.00 | 0.00 | 37 | 101.1 |
| 20260901205202 | 95 | 258 | 2.0 | 3.0 | 0.00 | 0.00 | 0.00 | 39 | 101.1 |
| 20260901204702 | 95 | 161 | 0.0 | 3.0 | 0.00 | 0.00 | 0.00 | 39 | 101.1 |
| 20260901204202 | 96 | 221 | 1.0 | 3.0 | 0.00 | 0.00 | 0.00 | 39 | 101.1 |
| 20260901203702 | 95 | 219 | 1.0 | 4.0 | 0.00 | 0.00 | 0.00 | 40 | 101.1 |
| 20260901203202 | 94 | 177 | 0.0 | 2.0 | 0.00 | 0.00 | 0.00 | 40 | 101.1 |
| 20260901202702 | 96 | 340 | 1.0 | 3.0 | 0.00 | 0.00 | 0.00 | 40 | 101.3 |
| 20260901202202 | 97 | 202 | 0.0 | 2.0 | 0.00 | 0.00 | 0.00 | 39 | 101.3 |
| 20260901201703 | 97 | 22 | 0.0 | 2.0 | 0.00 | 0.00 | 0.00 | 39 | 101.3 |
| 20260901201202 | 96 | 194 | 4.0 | 4.0 | 0.00 | 0.00 | 0.00 | 39 | 101.3 |
| 20260901200702 | 95 | 132 | 0.0 | 2.0 | 0.00 | 0.00 | 0.00 | 40 | 101.3 |
| 20260901200202 | 94 | 206 | 6.0 | 8.0 | 0.00 | 0.00 | 0.00 | 42 | 101.2 |
| 20260901195702 | 95 | 77 | 0.0 | 5.0 | 0.00 | 0.00 | 0.00 | 41 | 101.2 |
| 20260901195202 | 98 | 31 | 0.0 | 3.0 | 0.00 | 0.00 | 0.00 | 39 | 101.2 |
| 20260901194703 | 97 | 144 | 0.0 | 4.0 | 0.00 | 0.00 | 0.00 | 38 | 101.2 |
| 20260901194202 | 97 | 180 | 1.0 | 5.0 | 0.00 | 0.00 | 0.00 | 38 | 101.2 |
| 20260901193703 | 95 | 264 | 2.0 | 3.0 | 0.00 | 0.00 | 0.00 | 40 | 101.2 |
| 20260901193202 | 96 | 251 | 2.0 | 4.0 | 0.00 | 0.00 | 0.00 | 40 | 101.2 |
| 20260901192702 | 95 | 128 | 2.0 | 3.0 | 0.00 | 0.00 | 0.00 | 41 | 101.3 |
| 20260901192202 | 95 | 185 | 1.0 | 3.0 | 0.00 | 0.00 | 0.00 | 40 | 101.3 |
| 20260901191203 | 94 | 64 | 0.0 | 1.0 | 0.00 | 0.00 | 0.00 | 40 | 101.3 |
| 20260901190702 | 96 | 236 | 3.0 | 7.0 | 0.00 | 0.00 | 0.00 | 39 | 101.3 |
| 20260901190202 | 95 | 211 | 3.0 | 4.0 | 0.00 | 0.00 | 0.00 | 41 | 101.3 |
| 20260901185702 | 94 | 174 | 1.0 | 5.0 | 0.00 | 0.00 | 0.00 | 42 | 101.3 |
| 20260901185202 | 95 | 244 | 3.0 | 6.0 | 0.00 | 0.00 | 0.00 | 42 | 101.3 |
| 20260901184703 | 94 | 204 | 5.0 | 6.0 | 0.00 | 0.00 | 0.00 | 42 | 101.3 |
| 20260901184202 | 93 | 121 | 0.0 | 4.0 | 0.00 | 0.00 | 0.00 | 43 | 101.3 |
| 20260901183702 | 93 | 5 | 2.0 | 4.0 | 0.00 | 0.00 | 0.00 | 44 | 101.3 |
| 20260901183202 | 93 | 341 | 0.0 | 4.0 | 0.00 | 0.00 | 0.00 | 43 | 101.3 |
| 20260901182701 | 94 | 204 | 5.0 | 7.0 | 0.00 | 0.00 | 0.00 | 42 | 101.4 |
| 20260901182202 | 93 | 324 | 2.0 | 3.0 | 0.00 | 0.00 | 0.00 | 43 | 101.4 |
| 20260901181703 | 95 | 175 | 1.0 | 3.0 | 0.00 | 0.00 | 0.00 | 42 | 101.5 |
| 20260901181202 | 94 | 251 | 3.0 | 5.0 | 0.00 | 0.00 | 0.00 | 43 | 101.5 |
| 20260901180703 | 93 | 154 | 1.0 | 2.0 | 0.00 | 0.00 | 0.00 | 43 | 101.5 |
| 20260901180202 | 93 | 190 | 0.0 | 6.0 | 0.00 | 0.00 | 0.00 | 44 | 101.4 |
| 20260901175202 | 93 | 232 | 2.0 | 4.0 | 0.00 | 0.00 | 0.00 | 45 | 101.4 |
| 20260901174701 | 92 | 227 | 1.0 | 3.0 | 0.00 | 0.00 | 0.00 | 46 | 101.4 |
| 20260901174202 | 91 | 124 | 0.0 | 3.0 | 0.00 | 0.00 | 0.00 | 46 | 101.4 |
| 20260901173702 | 92 | 193 | 0.0 | 3.0 | 0.00 | 0.00 | 0.00 | 46 | 101.4 |
| 20260901173203 | 90 | 287 | 1.0 | 2.0 | 0.00 | 0.00 | 0.00 | 48 | 101.4 |
| 20260901172702 | 91 | 235 | 2.0 | 7.0 | 0.00 | 0.00 | 0.00 | 48 | 101.5 |
| 20260901172201 | 93 | 199 | 1.0 | 5.0 | 0.00 | 0.00 | 0.00 | 46 | 101.5 |
| 20260901171702 | 92 | 248 | 0.0 | 6.0 | 0.00 | 0.00 | 0.00 | 47 | 101.5 |
| 20260901171203 | 92 | 251 | 1.0 | 9.0 | 0.00 | 0.00 | 0.00 | 47 | 101.5 |
| 20260901170703 | 92 | 192 | 6.0 | 6.0 | 0.00 | 0.00 | 0.00 | 48 | 101.5 |
| 20260901170202 | 91 | 216 | 4.0 | 6.0 | 0.00 | 0.00 | 0.00 | 49 | 101.5 |
| 20260901165202 | 91 | 182 | 2.0 | 4.0 | 0.00 | 0.00 | 0.00 | 48 | 101.5 |
| 20260901164702 | 91 | 338 | 2.0 | 7.0 | 0.00 | 0.00 | 0.00 | 48 | 101.5 |
| 20260901164202 | 90 | 170 | 1.0 | 3.0 | 0.00 | 0.00 | 0.00 | 50 | 101.5 |
| 20260901163703 | 89 | 157 | 0.0 | 3.0 | 0.00 | 0.00 | 0.00 | 53 | 101.5 |
| 20260901163202 | 90 | 214 | 2.0 | 4.0 | 0.00 | 0.00 | 0.00 | 51 | 101.5 |
| 20260901162703 | 89 | 242 | 2.0 | 4.0 | 0.00 | 0.00 | 0.00 | 52 | 101.6 |
| 20260901162202 | 90 | 196 | 3.0 | 7.0 | 0.00 | 0.00 | 0.00 | 51 | 101.6 |
| 20260901161701 | 88 | 202 | 3.0 | 3.0 | 0.00 | 0.00 | 0.00 | 53 | 101.6 |
| 20260901161202 | 88 | 287 | 2.0 | 3.0 | 0.00 | 0.00 | 0.00 | 54 | 101.6 |
| 20260901160702 | 88 | 268 | 2.0 | 4.0 | 0.00 | 0.00 | 0.00 | 54 | 101.6 |
| 20260901155202 | 87 | 315 | 1.0 | 2.0 | 0.00 | 0.00 | 0.00 | 54 | 101.5 |
| 20260901154702 | 87 | 352 | 1.0 | 2.0 | 0.00 | 0.00 | 0.00 | 56 | 101.5 |
| 20260901153702 | 86 | 347 | 0.0 | 3.0 | 0.00 | 0.00 | 0.00 | 58 | 101.5 |
| 20260901153202 | 86 | 210 | 4.0 | 5.0 | 0.00 | 0.00 | 0.00 | 59 | 101.5 |
| 20260901152202 | 85 | 262 | 2.0 | 3.0 | 0.00 | 0.00 | 0.00 | 63 | 101.6 |
| 20260901151202 | 85 | 216 | 3.0 | 4.0 | 0.00 | 0.00 | 0.00 | 64 | 101.6 |
| 20260901150702 | 84 | 315 | 2.0 | 2.0 | 0.00 | 0.00 | 0.00 | 65 | 101.6 |
| 20260901150202 | 83 | 305 | 4.0 | 5.0 | 0.00 | 0.00 | 0.00 | 67 | 101.5 |
| 20260901145702 | 83 | 257 | 3.0 | 5.0 | 0.00 | 0.00 | 0.00 | 67 | 101.5 |
| 20260901145202 | 83 | 231 | 3.0 | 7.0 | 0.00 | 0.00 | 0.00 | 69 | 101.5 |
| 20260901144703 | 82 | 263 | 1.0 | 4.0 | 0.00 | 0.00 | 0.00 | 72 | 101.5 |
| 20260901143702 | 82 | 216 | 1.0 | 4.0 | 0.00 | 0.00 | 0.00 | 73 | 101.5 |
| 20260901143202 | 82 | 248 | 1.0 | 4.0 | 0.00 | 0.00 | 0.00 | 75 | 101.5 |
| 20260901142202 | 81 | 236 | 2.0 | 4.0 | 0.00 | 0.00 | 0.00 | 77 | 101.6 |
| 20260901141702 | 81 | 252 | 2.0 | 2.0 | 0.00 | 0.00 | 0.00 | 78 | 101.6 |
| 20260901141202 | 81 | 137 | 1.0 | 3.0 | 0.00 | 0.00 | 0.00 | 78 | 101.6 |
| 20260901140703 | 81 | 254 | 2.0 | 5.0 | 0.00 | 0.00 | 0.00 | 79 | 101.6 |
| 20260901140201 | 80 | 334 | 2.0 | 3.0 | 0.00 | 0.00 | 0.00 | 79 | 101.5 |
| 20260901135701 | 80 | 275 | 2.0 | 3.0 | 0.00 | 0.00 | 0.00 | 80 | 101.5 |
| 20260901135202 | 80 | 278 | 2.0 | 3.0 | 0.00 | 0.00 | 0.00 | 80 | 101.5 |
| 20260901134702 | 79 | 44 | 0.0 | 2.0 | 0.00 | 0.00 | 0.00 | 81 | 101.5 |
| 20260901133702 | 79 | 262 | 1.0 | 2.0 | 0.00 | 0.00 | 0.00 | 83 | 101.5 |
| 20260901133202 | 78 | 268 | 0.0 | 4.0 | 0.00 | 0.00 | 0.00 | 83 | 101.5 |
| 20260901132702 | 78 | 256 | 1.0 | 2.0 | 0.00 | 0.00 | 0.00 | 84 | 101.6 |
| 20260901131701 | 78 | 198 | 1.0 | 3.0 | 0.00 | 0.00 | 0.00 | 84 | 101.5 |
| 20260901131202 | 77 | 261 | 0.0 | 3.0 | 0.00 | 0.00 | 0.00 | 85 | 101.5 |
| 20260901130702 | 77 | 163 | 1.0 | 3.0 | 0.00 | 0.00 | 0.00 | 86 | 101.5 |
| 20260901125702 | 77 | 208 | 1.0 | 2.0 | 0.00 | 0.00 | 0.00 | 87 | 101.5 |
| 20260901125202 | 77 | 205 | 1.0 | 1.0 | 0.00 | 0.00 | 0.00 | 87 | 101.5 |
| 20260901124702 | 76 | 258 | 2.0 | 2.0 | 0.00 | 0.00 | 0.00 | 87 | 101.5 |
| 20260901124202 | 76 | 240 | 0.0 | 2.0 | 0.00 | 0.00 | 0.00 | 87 | 101.5 |
| 20260901123702 | 76 | 226 | 2.0 | 2.0 | 0.00 | 0.00 | 0.00 | 88 | 101.5 |
| 20260901123202 | 76 | 199 | 2.0 | 2.0 | 0.00 | 0.00 | 0.00 | 87 | 101.5 |